(44) Nysa
ephemeris date magn radius delta ra dec elong phase
Today28 Jul 202611.72.251 AU2.890 AU11h16m+07°11'42.7°17.8°
Opposition15 Jun 202710.32.715 AU1.701 AU17h34m-18°55'175.6°1.6°
(44) Nysa - 2026-07-28
astro.vanbuitenen.nl


 
-1 year
-1 month
-1 day
Now
+1 day
+1 month
+1 year

The interactive orbit chart above shows the body's path through the solar system and its position at the given date. Green and blue lines are shown perpendicular to the ecliptic plane: Green if the path is above the ecliptic plane, blue if it is below. (Left-click and drag to rotate the view; Right-click and drag to move the view; Use scroll wheel to zoom in our out.)

The orbital elements of Nysa are:

            e (Eccentricity)                : 0.1496735
            a (Semimajor axis)              : 2.4224996
            i (Inclination)                 : 3.71314
            Ω (Longitude of ascending node) : 131.47624
            ω (Argument of perihelion)      : 343.89309
            M (Mean anomaly)                : 41.45746
            Epoch                           : 2026 Jun 09

            L (Longitude of perihelion)     : 115.40139
            B (Latitude of perihelion)      : -1.02947
            P (Orbital period in years)     : 3.77            
        

The light curve chart below shows the estimated development of the minor planet's magnitude.


The all-sky chart below shows the path of the minor planet over the same period as the light curve. The current position is marked yellow.





The following chart shows the path of the minor planet in the next few days. The field of view is optimized for (~10x50) binoculars and finderscopes.




Ephemerides:
Date       Time       RA (2000)    DEC (2000)    delta   radius  elong  phase   PA    magn
2026-07-28 00:00 UT   11 16 33.2   +07 11 49     2.890    2.251   42.7   17.8   110   11.7 
2026-07-28 21:20 UT   11 18 08.4   +07 01 57     2.899    2.253   42.2   17.6   110   11.7 
2026-07-29 00:00 UT   11 18 20.3   +07 00 43     2.900    2.253   42.2   17.6   110   11.7 
2026-07-30 00:00 UT   11 20 07.4   +06 49 36     2.909    2.254   41.7   17.4   110   11.8 
2026-07-31 00:00 UT   11 21 54.5   +06 38 28     2.918    2.256   41.2   17.3   110   11.8 
2026-08-01 00:00 UT   11 23 41.6   +06 27 18     2.927    2.258   40.8   17.1   110   11.8 
2026-08-02 00:00 UT   11 25 28.8   +06 16 06     2.936    2.259   40.3   16.9   110   11.8 
2026-08-03 00:00 UT   11 27 15.9   +06 04 53     2.945    2.261   39.8   16.7   110   11.8 
2026-08-04 00:00 UT   11 29 03.1   +05 53 39     2.954    2.262   39.3   16.5   110   11.8 
2026-08-05 00:00 UT   11 30 50.3   +05 42 23     2.962    2.264   38.9   16.3   110   11.8 
2026-08-06 00:00 UT   11 32 37.5   +05 31 06     2.971    2.266   38.4   16.1   110   11.8 
2026-08-07 00:00 UT   11 34 24.7   +05 19 48     2.980    2.267   37.9   16.0   110   11.8 
2026-08-08 00:00 UT   11 36 12.0   +05 08 29     2.988    2.269   37.4   15.8   110   11.8 
2026-08-09 00:00 UT   11 37 59.3   +04 57 09     2.997    2.270   37.0   15.6   110   11.8 
2026-08-10 00:00 UT   11 39 46.5   +04 45 47     3.005    2.272   36.5   15.4   110   11.8 
2026-08-11 00:00 UT   11 41 33.9   +04 34 25     3.014    2.274   36.0   15.2   110   11.8 
2026-08-12 00:00 UT   11 43 21.2   +04 23 02     3.022    2.275   35.6   15.0   110   11.8 
2026-08-13 00:00 UT   11 45 08.6   +04 11 38     3.030    2.277   35.1   14.8   110   11.8 
2026-08-14 00:00 UT   11 46 55.9   +04 00 13     3.038    2.278   34.6   14.6   110   11.8 


    Terminology:
            
    delta:  distance between minor planet and earth in AU
    radius: distance between minor planet and sun in AU
    magn:   magnitude (brightness) estimate    
    ra:     right ascension in hours (24h = 360deg)
    dec:    declination in degrees
    elong:  elongation in degrees (angle sun-earth-minor planet)    
    phase:  phase angle in degrees (angle sun-minor planet-earth)        
    AU:     Astronomical Unit (mean distance between earth and sun: 149597870.7 km
    

Orbital elements provided by the MPC (Minor Planet Center).
Calculations by a modified version of AAPlus, a C# implementation of the AA+ project by PJ Naughter from the algorithms presented in the book "Astronomical Algorithms" by Jean Meeus.
NGC2000 dso catalog and star labels from VizieR as provided by the Strasbourg astronomical Data Center.
Tycho2 catalog from the ESO archive.